Other Public Products
Issued by NWS Grand Forks, ND

Home | Current Version | Previous Version | Text Only | Print | Product List | Glossary On
Versions: 1 2 3 4 5 6 7 8 9 10 11 12 13 14 15 16 17 18 19 20 21 22 23 24 25 26 27 28 29 30 31 32 33 34 35 36 37 38 39 40 41 42 43 44 45 46 47 48 49 50
000
FPUS83 KFGF 251410
OPUFGF
PRAIRIE TO PINES WEATHER ROUNDUP
NATIONAL WEATHER SERVICE EASTERN NORTH DAKOTA/GRAND FORKS ND
800 AM CST SAT FEB 25 2017

 **SATELLITE DATA USED TO AUGMENT SKY COVER AT AUTOMATED STATIONS**
 *****  WEATHER ACROSS EASTERN NORTH DAKOTA  *****

CITY           SKY/WX    TMP DP  RH WIND       PRES   REMARKS
GRAND FORKS    CLOUDY    22  14  71 S7        29.89F WCI  13
GRAND FORKS AF MOCLDY    22  17  82 SW9       29.88F WCI  12
GRAND CITY NWS NOT AVBL
BUXTON         NOT AVBL
DEVILS LAKE    CLOUDY    20  17  88 W9        29.86F WCI   9
FARGO          CLOUDY    20  13  74 S12       29.94F WCI   8
WAHPETON ARPT  CLOUDY    19  14  79 SW5       29.98F WCI  13
$$

 *****  WEATHER ACROSS CENTRAL AND WESTERN NORTH DAKOTA  *****

CITY           SKY/WX    TMP DP  RH WIND       PRES   REMARKS
JAMESTOWN      FLURRIES  20  15  81 SW9       29.88F WCI   9
BISMARCK       CLOUDY    22  17  81 W5        29.91F WCI  16
MINOT          FAIR      20  16  84 W9        29.88F WCI   9
MINOT AFB      NOT AVBL
GARRISON         N/A     19  16  88 NW10      29.88S WCI   7
WILLISTON      CLOUDY    18  17  96 N7        29.93S FOG     WCI   9
DICKINSON      LGT SNOW  21  18  88 W6        29.84S FOG     WCI  13
HETTINGER      CLOUDY    22  18  85 W9        29.88F WCI  12
$$

 *****  OTHER OBSERVATIONS NORTHEAST NORTH DAKOTA  *****

CITY           SKY/WX    TMP DP  RH WIND       PRES   REMARKS
WALHALLA       NOT AVBL
LANGDON        NOT AVBL
CAVALIER         N/A     21  18  86 W10       29.86F WCI  10
GRAFTON        PTSUNNY   21  18  86 SW10      29.88F WCI  10
CANDO          NOT AVBL
FORT TOTTEN      N/A     20  19  97 W3        29.95S
ROLLA          CLOUDY    16  16 100 W7        29.84S WCI   6
RUGBY          FOG       16  16 100 NW12      29.87S VSB 1   WCI   3
 ***** THE ABOVE OBSERVATIONS ARE NON NWS ARE NOT QUALITY
        CONTROLLED AND MAY MIS-REPORT RAIN FOR SNOW...
$$

 *****  OTHER OBSERVATIONS SOUTHEAST NORTH DAKOTA *****

CITY           SKY/WX    TMP DP  RH WIND       PRES   REMARKS
COOPERSTOWN    CLOUDY    21  18  86 SW12      29.88F WCI   9
VALLEY CITY    CLOUDY    19  19 100 SW9       29.91F WCI   9
OAKES          NOT AVBL
GWINNER        PTSUNNY   23  19  86 SW12      29.94F WCI  12
SHEYENNE NWR     N/A     19  15  85 W6        29.95S WCI  11
BUFFALO        NOT AVBL
WYNDMERE       NOT AVBL
 ***** THE ABOVE OBSERVATIONS ARE NON NWS ARE NOT QUALITY
       CONTROLLED AND MAY MIS-REPORT RAIN FOR SNOW...
$$

  *****  WEATHER ACROSS NORTHERN MINNESOTA  *****

CITY           SKY/WX    TMP DP  RH WIND       PRES   REMARKS
FLAG ISLAND    CLOUDY     3   0  85 CALM      29.86F
WARROAD        FAIR       9   3  78 S3        29.87F
ROSEAU         LGT SNOW  12   7  79 S5        29.87F WCI   4
HALLOCK        LGT SNOW  18  16  93 S10       29.86F WCI   6
THF RVR FALLS  FLURRIES  15  12  88 S9        29.89F WCI   3
HALSTAD          N/A     20  12  71 SW10        N/A  WCI   9
FOSSTON        CLOUDY    12   9  85 S6        29.90F WCI   3
BAUDETTE       FAIR       5  -1  76 CALM      29.86F
WASKISH        MOCLDY     9   5  85 SW6       29.89S WCI  -1
CROOKSTON      CLOUDY    19  16  86 SW10      29.92S WCI   8
$$
  *****  WEATHER ACROSS CENTRAL AND WEST MINNESOTA  *****

CITY           SKY/WX    TMP DP  RH WIND       PRES   REMARKS
BEMIDJI        MOCLDY     7   3  86 W5        29.89F WCI  -2
PARK RAPIDS    CLOUDY    10   3  73 W7        29.90S WCI  -1
WADENA         CLOUDY    10   7  85 W7        29.93R WCI   0
DETROIT LAKES  FAIR      18  12  79 SW3       29.93S
MOORHEAD       CLOUDY    19  12  73 S10       29.95F WCI   8
FERGUS FALLS   CLOUDY    16  14  93 CALM      30.01F
ELBOW LAKE     PTSUNNY   15  14  93 SW5       29.98R WCI   8
MORRIS MN      FAIR      16  12  86 W3        29.97F
STAPLES        FAIR      10   5  79 W5        29.93S WCI   2
WHEATON        MOCLDY    16  12  86 SW5       30.00F WCI   9
$$
  *****  WEATHER ELSEWHERE ACROSS MINNESOTA  *****

CITY           SKY/WX    TMP DP  RH WIND       PRES   REMARKS
DULUTH         FAIR       6   2  83 NW17      29.81R WCI -13
INTRNTL FALLS  FAIR       3  -3  76 W6        29.86S WCI  -8
ELY            CLOUDY     7   1  78 NW9       29.80R WCI  -7
CLOQUET        FAIR       7   1  78 NW10      29.84R WCI  -8
BRAINERD       FAIR      10   2  69 NW8       29.92S WCI  -2
HIBBING        FAIR       4  -1  80 NW12      29.84R WCI -12
ALEXANDRIA     MOCLDY    14   8  77 W8        29.95S WCI   3
SAINT CLOUD    FAIR      14   5  67 NW12      29.95R WCI   0
MINNEAPOLIS    FAIR      16   3  56 NW18      29.95R WCI   0
$$

  *****  WEATHER ACROSS SOUTH DAKOTA  *****

CITY           SKY/WX    TMP DP  RH WIND       PRES   REMARKS
SIOUX FALLS    MOCLDY    15  12  88 W6        30.03S WCI   6
BROOKINGS      FAIR      16  14  92 W5        29.99S WCI   9
WATERTOWN      FAIR      14  11  87 CALM      29.96F
HURON          CLOUDY    21  18  88 SW8       30.01F WCI  11
SISSETON         N/A     22  16  78 W5        29.97F WCI  16
ABERDEEN       CLOUDY    18  14  84 S6        29.98F WCI  10
MITCHELL       CLOUDY    22  17  81 SW6       30.05F WCI  14
PIERRE         CLOUDY    20  15  81 S8        29.96F WCI  10
MOBRIDGE       FAIR      22  14  71 E7        29.90F WCI  13
RAPID CITY     CLOUDY    22  15  75 W6        29.90S WCI  14
$$

  *****  SOME WEATHER IN NEARBY STATES *****

CITY           SKY/WX    TMP DP  RH WIND       PRES   REMARKS
GLASGOW MT     CLOUDY    21  19  92 S5        29.89F WCI  15
GREAT FALLS MT FAIR      19  11  70 SW15      29.86F WCI   5
CHEYENNE WY    FAIR      11  -1  58 W9        29.89S WCI  -2
SCOTTSBLUFF NE FAIR      -1  -5  82 NW9       29.97S WCI -16
OMAHA NE       MOCLDY    18  12  77 W6        30.13R WCI  10
DES MOINES IA  FAIR      18   9  68 NW17      30.04R WCI   3
DAVENPORT IA   FAIR      19  11  70 W23G30    29.91R WCI   2
CHICAGO IL     FLURRIES  23  14  68 NW18      29.77R WCI   9
EAU CLAIRE WI  FAIR      11   3  70 NW12      29.85R WCI  -3
LA CROSSE WI   FAIR      18   7  62 NW22      29.86R WCI   1
$$

  *****  SOME NATIONAL WEATHER *****

CITY           SKY/WX    TMP DP  RH WIND       PRES   REMARKS
LA GUARDIA NY  FOG       53  51  93 S8        29.75F VSB 1
RALEIGH NC     FAIR      65  57  75 SW16G25   29.75F
ATLANTA GA     PTSUNNY   57  40  52 NW18G29   29.86R
NEW ORLEANS LA FAIR      61  36  39 N10       30.02R
OKLAHOMA CITY  FAIR      25  19  78 N10       30.23R WCI  15
ALBUQUERQUE NM FAIR      27   4  37 N6        30.09S WCI  20
SALT LAKE CITY MOCLDY    23  14  68 SE13      30.08F WCI  11
LOS ANGELES CA FAIR      44  36  73 NE5       30.13S
BOISE ID       FAIR      21  14  74 S3        30.14R
SEATTLE WA     MOCLDY    33  26  75 SE5       30.25S
$$

*** WEATHER ACROSS MANITOBA...SASKATCHEWAN AND ONTARIO ***
                ***ONTARIO***

CITY           SKY/WX    TMP DP  RH WIND       PRES   REMARKS
GERALDTON      LGT SNOW   3  -2  78 N9        29.59S DRFTSNOWWCI -11
THUNDER BAY    PTSUNNY   12   0  57 NW14G21   29.72R WCI  -3
SIOUX LOOKOUT  PTCLDY     7   0  72 NW10      29.76F WCI  -8
TORONTO        CLOUDY    43  43 100 W12       29.43R
BIG TROUT LK   PTCLDY   -13 -17  84 CALM      29.77F
PICKLE LAKE    PTCLDY    -8 -15  71 W8        29.71S WCI -23
DRYDEN         CLEAR      1  -2  85 W8        29.79F WCI -12
KENORA         MOCLDY     3  -4  72 NW5       29.82F WCI  -6
$$
                *** MANITOBA***

CITY           SKY/WX    TMP DP  RH WIND       PRES   REMARKS
BRANDON        CLOUDY    14  12  92 W9        29.85F WCI   2
DAUPHIN        FLURRIES  12   7  79 N10       29.89S WCI  -1
ISLAND LAKE    NOT AVBL
PILOT MOUND      N/A     16  14  93 W6          N/A  WCI   7
THE PAS        FLURRIES   1  -6  71 NW13      29.90F WCI -16
THOMPSON       PTCLDY   -22 -29  69 W2        29.83F
WINNIPEG       FLURRIES  14  10  85 S6        29.85F WCI   5
LYNN LAKE      FLURRIES -11 -15  84 W8        29.81F WCI -28
CHURCHILL      CRYSTALS -15 -20  76 SW7       29.88F WCI -31
GILLAM         FOG      -20 -26  76 NW2       29.84F VSB 1
$$
                ***SASKATCHEWAN***

CITY           SKY/WX    TMP DP  RH WIND       PRES   REMARKS
ESTEVAN        CLOUDY    14  10  85 NW10      29.91S WCI   1
KINDERSLEY     MOCLDY     9   3  78 CALM      29.90F
LLOYDMINSTER   MOCLDY     1  -2  85 SW10      29.86F WCI -14
PRINCE ALBERT  FLURRIES   3  -4  72 NW7       29.95F WCI  -9
REGINA         MOCLDY    10   5  79 NW8       29.91F WCI  -1
YORKTON        LGT SNOW   9   3  78 NW12      29.89F WC


USA.gov is the U.S. government's official web portal to all federal, state and local government web resources and services.